CAPE
0 0 0 0 0 0 0 6 14 60 55 15 0 0 0 30 125 119 0 0 0 0 153 194 282 590 786 429 151 63 15 8 11 14 7 6 13 11 15 10 10 34 35 18 10 11 8 7 3
0 0 0 0 0 0 0 6 30 96 28 22 0 0 0 47 27 4 31 2 0 0 41 8 124 470 711 614 388 179 21 6 13 11 9 6 7 14 16 9 27 11 9 11 7 5 1 0 0
0 0 0 0 0 0 0 26 36 185 108 54 0 10 114 124 28 12 49 15 0 0 0 0 113 472 710 632 531 280 21 13 9 11 10 7 12 15 9 5 15 5 10 15 11 8 5 3 0
0 0 0 0 0 0 0 0 16 96 104 127 120 61 39 41 1 0 24 0 0 0 0 0 210 461 623 507 466 337 42 6 10 15 15 9 6 15 22 21 13 8 5 10 12 10 5 1 0
0 0 0 0 0 0 0 0 8 6 76 174 155 146 84 25 0 0 0 0 0 0 19 112 252 439 569 623 439 330 67 9 18 9 12 11 19 12 13 6 7 6 4 5 4 4 2 2 0
0 0 0 0 0 0 0 0 0 0 0 67 189 163 93 64 0 0 0 0 0 3 19 25 120 255 466 518 288 226 81 8 19 19 18 16 6 6 6 3 1 1 1 2 1 0 12 10 3
0 0 0 0 0 0 0 0 0 1 0 1 217 205 63 98 30 7 0 0 0 3 0 0 59 136 305 285 133 75 25 10 19 19 21 27 9 14 5 3 0 0 2 8 10 8 4 1 0
0 1 0 0 0 0 0 0 0 17 17 171 219 199 148 146 59 9 0 0 0 6 7 1 123 160 158 153 40 9 28 3 14 21 9 0 0 0 0 0 0 0 0 2 16 3 0 0 0
0 4 0 0 0 0 0 0 6 24 51 176 202 185 85 171 53 11 0 0 0 0 13 23 256 149 108 62 26 21 34 9 0 3 0 0 0 0 0 0 0 0 0 17 1 0 0 0 0
2 8 0 0 0 0 0 0 0 21 10 40 190 186 93 110 81 27 3 0 0 0 23 18 119 37 53 0 19 22 27 13 0 0 0 0 0 0 0 0 0 0 0 18 0 0 0 0 0
0 5 0 0 0 8 14 7 3 10 0 0 69 225 135 72 116 58 34 0 0 0 0 31 52 129 20 0 15 34 35 18 0 0 0 0 0 0 0 0 0 0 29 31 7 0 0 0 0
0 0 0 0 0 0 7 10 3 5 0 0 35 112 121 146 102 79 46 0 0 0 0 2 86 49 38 24 28 165 49 0 0 0 0 0 0 0 0 14 20 43 26 8 0 0 0 0 0
0 0 0 0 5 0 2 8 7 0 0 0 19 3 96 177 155 68 22 4 16 0 0 0 2 16 9 39 26 45 16 0 0 0 0 0 0 0 12 32 31 26 2 0 0 0 0 0 0
0 0 0 0 0 5 0 0 4 0 0 0 0 0 77 115 139 76 36 16 19 22 0 0 1 0 2 5 17 3 0 0 0 0 0 0 3 9 21 18 12 4 0 0 0 0 0 0 0
0 0 0 0 0 0 0 0 0 0 0 0 0 0 1 90 118 45 55 40 9 15 24 0 6 7 0 0 0 0 0 0 3 8 0 0 8 26 20 18 9 0 0 0 0 0 0 0 0
0 0 0 0 0 0 0 0 0 0 0 0 0 0 0 0 62 119 65 45 36 16 24 6 8 8 1 0 0 0 0 1 3 8 8 16 21 24 22 9 1 0 0 0 0 0 0 0 0
0 0 0 0 0 0 0 0 0 0 0 0 2 0 0 0 0 77 85 66 48 42 32 35 6 5 6 0 0 0 0 11 15 19 10 23 15 11 4 1 4 1 0 0 0 0 0 0 0
0 0 0 0 0 0 0 0 0 0 0 0 0 7 6 0 0 60 81 63 59 40 34 35 1 6 10 0 0 8 5 7 21 16 9 4 0 0 0 2 1 0 0 0 0 0 0 0 0
0 0 0 0 0 0 0 0 0 0 0 0 0 0 10 13 21 40 87 63 17 16 10 38 0 7 10 0 0 5 1 3 5 5 1 0 0 0 0 0 0 0 0 2 6 0 0 0 6
0 0 0 0 0 0 0 0 0 0 0 0 0 0 0 26 14 95 108 67 16 2 13 29 18 3 7 4 0 0 0 1 4 1 0 0 0 0 0 0 1 4 5 7 4 1 6 10 13
0 0 0 0 0 0 0 0 0 0 0 0 0 0 0 4 28 74 142 28 10 17 3 33 20 30 5 6 0 0 0 1 6 4 0 2 4 1 2 8 3 8 9 0 7 2 3 7 3
0 0 0 0 0 0 0 0 0 0 0 0 0 0 0 0 9 19 87 40 1 1 7 12 17 4 0 7 0 0 0 0 0 0 0 0 2 1 13 6 8 10 3 1 1 12 8 6 3
0 0 0 0 0 0 0 0 0 0 0 0 0 0 0 0 0 3 91 76 29 0 22 28 23 3 1 0 0 1 0 0 0 0 0 0 0 6 1 6 3 3 16 12 9 7 9 6 1
9 0 0 0 0 0 0 0 0 0 0 0 0 0 0 0 0 0 58 99 51 18 26 16 40 2 2 0 0 3 0 0 0 0 0 0 0 1 8 4 4 6 7 6 5 5 0 0 0
18 13 0 0 0 0 0 0 0 0 0 0 0 0 0 0 0 0 0 101 67 26 36 165 64 17 16 8 0 0 0 0 0 0 0 0 0 9 7 3 3 6 5 2 1 1 0 0 0
0 7 0 0 0 0 0 0 0 0 0 25 20 20 1 5 17 13 0 145 127 56 65 51 165 62 49 29 2 0 6 0 1 8 8 7 14 11 3 7 7 6 0 0 1 0 0 0 0
2 0 0 0 0 0 0 0 0 0 1 0 13 2 0 0 0 2 4 150 132 104 84 83 142 88 68 38 0 0 6 12 16 10 12 29 14 7 6 7 3 1 0 0 0 0 0 0 0
0 0 0 7 0 0 0 0 0 0 0 0 0 0 0 0 0 0 18 130 113 127 117 169 94 87 74 49 2 0 32 34 44 47 48 28 3 8 1 1 1 0 0 0 0 0 0 0 0
0 0 0 0 0 0 0 0 0 0 0 0 0 0 0 0 0 0 4 83 99 136 118 115 140 96 75 47 4 5 66 86 81 37 21 5 6 1 0 0 0 0 0 0 0 0 0 0 0
0 0 0 0 0 0 0 0 0 0 0 0 0 0 0 0 0 5 21 66 117 76 117 96 108 87 105 49 2 19 29 55 65 17 11 1 0 0 0 0 0 0 0 0 0 0 0 0 0
CIN
0 0 0 0 0 0 0 -23 -2 -13 -10 -18 0 0 0 -77 -56 -69 0 0 0 0 -117 -72 -27 0 0 0 -22 -100 0 0 0 0 0 0 0 -1 -1 0 0 -3 -3 0 0 0 0 0 0
0 0 0 0 0 0 0 -3 -2 -19 -10 -12 0 0 0 -49 -199 -225 -246 -16 0 0 -176 -181 -80 -5 0 0 0 -1 -5 0 0 0 0 0 0 0 -1 0 -3 0 0 0 0 0 0 0 0
0 0 0 0 0 -2 0 -7 -1 -30 -18 -10 0 -54 -25 -52 -79 -266 -239 -274 0 0 0 0 -88 -5 0 0 0 0 -3 0 0 0 0 0 0 -1 -1 0 -1 0 0 0 0 0 0 0 0
0 0 0 0 0 0 0 -2 -10 -20 -28 -40 -28 -19 -41 -60 -5 -3 -257 -1 0 0 0 0 -50 -2 0 0 0 0 -22 0 0 0 0 0 0 -1 0 -1 0 0 0 0 0 0 0 0 0
0 0 0 0 0 0 0 0 0 -5 -2 -15 -21 -16 -23 -28 0 0 0 0 0 0 -282 -123 -29 -1 0 0 0 0 -8 0 0 0 0 0 0 0 0 0 0 0 0 0 0 0 0 0 0
0 0 0 0 0 0 0 0 0 0 0 -3 -6 -18 -8 -28 0 0 0 0 0 -3 -233 -230 -90 -9 -1 -1 -4 -1 -9 0 0 0 0 0 0 0 0 0 0 0 0 0 0 0 0 0 -4
0 0 0 0 0 0 0 0 0 -140 0 -2 -10 -16 -19 -20 -60 -175 0 0 0 -4 0 0 -115 -49 -4 -6 -24 -26 -14 0 -1 0 0 -6 0 0 0 0 0 0 0 0 0 -2 -7 -1 0
0 0 0 0 0 0 0 0 0 -93 -82 -38 -22 -18 -17 -35 -31 -139 0 0 0 -5 -11 -6 -32 -25 -30 -17 -38 0 0 -1 -6 -11 -10 0 0 0 0 0 0 0 0 -2 -4 -14 0 0 0
0 0 0 0 0 0 0 0 -21 -67 -49 -18 -27 -28 -39 -28 -37 -32 0 0 0 -1 -12 -38 0 -14 -39 -52 0 0 0 0 0 -4 0 0 0 0 0 0 0 0 0 -8 -5 0 0 0 0
0 -1 0 0 0 0 0 0 0 -31 -17 -26 -24 -62 -45 -47 -40 -23 -13 0 0 0 -6 -22 -9 -28 -18 0 0 -1 0 0 0 0 0 0 0 0 0 0 0 0 0 -20 0 0 0 0 0
0 0 0 0 0 -6 -4 -2 -10 -5 0 0 -15 -39 -48 -66 -43 -34 -19 0 0 0 0 -11 -14 -10 -7 -1 -9 -11 -2 0 0 0 0 0 0 0 0 0 0 0 -2 -3 -9 0 0 0 0
0 0 0 0 0 0 -4 -16 -19 0 0 0 -28 -37 -12 -40 -55 -32 -26 0 0 0 0 -1 -16 -5 0 -2 0 0 -3 0 0 0 0 0 0 0 0 -47 -32 -2 -1 -5 0 0 0 0 0
0 0 0 0 -5 0 -4 -13 -7 0 0 0 -30 -19 -30 -39 -57 -48 -45 -14 -57 0 0 0 -1 -4 0 -24 0 -4 0 0 0 0 0 0 0 0 -4 -10 -1 -4 0 0 0 0 0 0 0
0 0 0 0 0 -10 0 0 -1 0 0 -3 0 0 -30 -36 -64 -55 -54 -49 -53 -24 0 0 -1 0 0 0 0 0 0 0 0 -1 0 0 -2 -5 -12 -6 -4 -1 0 0 0 0 0 0 0
0 0 0 0 0 0 0 0 0 0 0 0 0 0 -2 -46 -72 -89 -68 -47 -63 -48 -15 0 -8 0 0 0 0 0 0 0 -1 -3 0 -1 -3 -14 -6 -10 0 -1 0 0 0 0 0 0 0
0 0 0 0 0 0 0 0 0 0 0 0 0 0 0 0 -55 -138 -114 -70 -55 -60 -46 -24 -8 0 0 0 0 0 0 -1 -3 -5 -1 -10 -9 -4 -4 0 0 0 0 0 0 0 0 0 0
0 0 0 0 0 0 0 0 0 0 0 0 -2 0 0 0 0 -81 -119 -127 -59 -57 -52 -21 0 0 0 0 0 0 0 -18 -10 -11 0 -5 -4 -2 -3 -1 0 0 0 0 0 0 0 0 0
0 0 0 0 0 0 0 0 0 0 0 0 -1 -1 -1 0 0 -84 -101 -119 -82 -52 -74 -37 0 0 0 0 0 -12 -13 -6 -11 -7 -1 -1 0 0 0 0 -1 0 0 0 0 0 0 0 0
0 0 0 0 0 0 0 0 0 0 0 0 0 0 -3 0 -26 -106 -94 -88 -84 -58 -67 -44 0 0 0 0 0 -4 -6 -6 -2 0 -1 0 0 0 0 0 0 0 0 0 0 0 0 0 0
0 0 0 0 0 0 0 0 0 0 0 0 0 0 0 -1 -4 -206 -88 -102 -77 -11 -62 -62 -12 -4 0 0 0 0 0 -1 -1 -1 0 0 0 0 0 0 -2 0 -4 0 0 0 0 0 0
0 0 0 0 0 0 0 0 0 0 0 0 0 0 0 -1 -2 -5 -181 -168 -85 -66 -27 -61 -16 -11 0 0 0 0 0 0 0 0 -2 -3 -3 0 -1 -2 0 0 0 0 0 0 0 0 0
0 0 0 0 0 0 0 0 0 0 0 0 0 0 0 0 -2 0 -52 -132 -17 0 -12 -62 -17 -8 0 0 0 0 0 0 0 0 0 0 -2 -4 -4 0 0 0 0 0 0 0 0 -2 0
0 0 0 0 0 0 0 0 0 0 0 0 0 0 0 0 0 -1 -38 -21 -52 0 -63 -73 -24 -13 -15 0 0 0 0 0 0 0 0 0 0 -1 0 0 0 0 0 0 0 0 0 0 0
-27 0 0 0 0 0 0 0 0 0 0 0 0 0 0 0 0 0 -74 -24 -101 -10 -36 -64 -27 -9 -16 -11 0 0 0 0 0 0 0 0 0 0 0 -3 0 0 0 0 0 0 0 0 0
-7 -2 0 0 0 0 0 0 0 0 0 0 0 0 0 0 0 0 0 -44 -28 -25 -4 -54 -86 -21 -6 -13 0 0 0 0 0 0 0 0 0 0 0 0 -2 0 0 0 0 0 0 0 0
0 -7 0 0 0 0 0 0 0 0 0 -20 -4 -32 -17 -43 -40 -18 0 -48 -39 -28 -29 -4 -54 -8 -8 -11 -8 0 0 0 0 0 0 -25 -11 -4 0 0 0 0 0 0 0 0 0 0 0
-1 0 0 0 0 0 0 0 0 0 -4 0 -41 -57 0 0 -6 -34 -18 -78 -23 -36 -35 -25 -51 -3 -40 -6 -8 0 0 0 0 0 -19 -9 0 0 0 0 0 0 0 0 0 0 0 0 0
0 0 0 0 0 0 0 0 0 0 0 0 0 0 0 0 0 0 -12 -81 -52 -9 0 0 -8 -21 -20 -3 0 0 0 -3 -1 0 0 0 -1 0 0 0 0 0 0 0 0 0 0 0 0
0 0 0 0 0 0 0 0 0 0 0 0 0 0 0 0 0 0 -50 -30 -36 0 0 0 0 -10 -1 -3 0 0 0 0 0 0 0 0 0 0 0 0 0 0 0 0 0 0 0 0 0
0 0 0 0 0 0 0 0 0 0 0 0 0 0 0 0 0 -55 -74 -25 -29 -1 0 0 0 0 0 0 0 -1 0 0 0 0 -3 0 0 0 0 0 0 0 0 0 0 0 0 0 0
Wind_Speed
nan nan nan nan nan nan nan nan nan nan nan nan nan nan nan nan 15 10 nan nan nan nan 14 12 12 11 11 14 15 nan nan nan nan nan nan nan nan nan nan nan nan nan nan nan nan nan nan nan nan
nan nan nan nan nan nan nan nan nan nan nan nan nan nan nan nan nan nan nan nan nan nan nan nan 10 10 11 15 16 18 nan nan nan nan nan nan nan nan nan nan nan nan nan nan nan nan nan nan nan
nan nan nan nan nan nan nan nan nan 33 19 nan nan nan 15 17 nan nan nan nan nan nan nan nan 13 13 14 18 17 16 nan nan nan nan nan nan nan nan nan nan nan nan nan nan nan nan nan nan nan
nan nan nan nan nan nan nan nan nan nan 26 24 21 nan nan nan nan nan nan nan nan nan nan nan 16 15 15 16 17 16 nan nan nan nan nan nan nan nan nan nan nan nan nan nan nan nan nan nan nan
nan nan nan nan nan nan nan nan nan nan nan 20 18 16 nan nan nan nan nan nan nan nan nan 19 18 16 15 17 19 23 nan nan nan nan nan nan nan nan nan nan nan nan nan nan nan nan nan nan nan
nan nan nan nan nan nan nan nan nan nan nan nan 24 19 nan nan nan nan nan nan nan nan nan nan 20 17 18 20 22 25 nan nan nan nan nan nan nan nan nan nan nan nan nan nan nan nan nan nan nan
nan nan nan nan nan nan nan nan nan nan nan nan 28 26 nan nan nan nan nan nan nan nan nan nan nan 17 19 22 23 nan nan nan nan nan nan nan nan nan nan nan nan nan nan nan nan nan nan nan nan
nan nan nan nan nan nan nan nan nan nan nan 34 33 27 26 23 nan nan nan nan nan nan nan nan 22 22 20 21 nan nan nan nan nan nan nan nan nan nan nan nan nan nan nan nan nan nan nan nan nan
nan nan nan nan nan nan nan nan nan nan nan 35 34 37 nan 35 nan nan nan nan nan nan nan nan 20 23 25 nan nan nan nan nan nan nan nan nan nan nan nan nan nan nan nan nan nan nan nan nan nan
nan nan nan nan nan nan nan nan nan nan nan nan 36 40 nan 36 nan nan nan nan nan nan nan nan 21 nan nan nan nan nan nan nan nan nan nan nan nan nan nan nan nan nan nan nan nan nan nan nan nan
nan nan nan nan nan nan nan nan nan nan nan nan nan 39 42 nan 30 nan nan nan nan nan nan nan nan 26 nan nan nan nan nan nan nan nan nan nan nan nan nan nan nan nan nan nan nan nan nan nan nan
nan nan nan nan nan nan nan nan nan nan nan nan nan 43 42 33 31 nan nan nan nan nan nan nan nan nan nan nan nan 25 nan nan nan nan nan nan nan nan nan nan nan nan nan nan nan nan nan nan nan
nan nan nan nan nan nan nan nan nan nan nan nan nan nan nan 34 32 nan nan nan nan nan nan nan nan nan nan nan nan nan nan nan nan nan nan nan nan nan nan nan nan nan nan nan nan nan nan nan nan
nan nan nan nan nan nan nan nan nan nan nan nan nan nan nan 31 36 nan nan nan nan nan nan nan nan nan nan nan nan nan nan nan nan nan nan nan nan nan nan nan nan nan nan nan nan nan nan nan nan
nan nan nan nan nan nan nan nan nan nan nan nan nan nan nan nan 39 nan nan nan nan nan nan nan nan nan nan nan nan nan nan nan nan nan nan nan nan nan nan nan nan nan nan nan nan nan nan nan nan
nan nan nan nan nan nan nan nan nan nan nan nan nan nan nan nan nan 34 nan nan nan nan nan nan nan nan nan nan nan nan nan nan nan nan nan nan nan nan nan nan nan nan nan nan nan nan nan nan nan
nan nan nan nan nan nan nan nan nan nan nan nan nan nan nan nan nan nan nan nan nan nan nan nan nan nan nan nan nan nan nan nan nan nan nan nan nan nan nan nan nan nan nan nan nan nan nan nan nan
nan nan nan nan nan nan nan nan nan nan nan nan nan nan nan nan nan nan nan nan nan nan nan nan nan nan nan nan nan nan nan nan nan nan nan nan nan nan nan nan nan nan nan nan nan nan nan nan nan
nan nan nan nan nan nan nan nan nan nan nan nan nan nan nan nan nan nan nan nan nan nan nan nan nan nan nan nan nan nan nan nan nan nan nan nan nan nan nan nan nan nan nan nan nan nan nan nan nan
nan nan nan nan nan nan nan nan nan nan nan nan nan nan nan nan nan nan 47 nan nan nan nan nan nan nan nan nan nan nan nan nan nan nan nan nan nan nan nan nan nan nan nan nan nan nan nan nan nan
nan nan nan nan nan nan nan nan nan nan nan nan nan nan nan nan nan nan 46 nan nan nan nan nan nan nan nan nan nan nan nan nan nan nan nan nan nan nan nan nan nan nan nan nan nan nan nan nan nan
nan nan nan nan nan nan nan nan nan nan nan nan nan nan nan nan nan nan nan nan nan nan nan nan nan nan nan nan nan nan nan nan nan nan nan nan nan nan nan nan nan nan nan nan nan nan nan nan nan
nan nan nan nan nan nan nan nan nan nan nan nan nan nan nan nan nan nan nan nan nan nan nan nan nan nan nan nan nan nan nan nan nan nan nan nan nan nan nan nan nan nan nan nan nan nan nan nan nan
nan nan nan nan nan nan nan nan nan nan nan nan nan nan nan nan nan nan nan nan nan nan nan nan nan nan nan nan nan nan nan nan nan nan nan nan nan nan nan nan nan nan nan nan nan nan nan nan nan
nan nan nan nan nan nan nan nan nan nan nan nan nan nan nan nan nan nan nan 55 nan nan nan 50 nan nan nan nan nan nan nan nan nan nan nan nan nan nan nan nan nan nan nan nan nan nan nan nan nan
nan nan nan nan nan nan nan nan nan nan nan nan nan nan nan nan nan nan nan 56 52 nan nan nan 48 nan nan nan nan nan nan nan nan nan nan nan nan nan nan nan nan nan nan nan nan nan nan nan nan
nan nan nan nan nan nan nan nan nan nan nan nan nan nan nan nan nan nan nan 53 54 50 nan nan 56 nan nan nan nan nan nan nan nan nan nan nan nan nan nan nan nan nan nan nan nan nan nan nan nan
nan nan nan nan nan nan nan nan nan nan nan nan nan nan nan nan nan nan nan 51 56 58 62 63 nan nan nan nan nan nan nan nan nan nan nan nan nan nan nan nan nan nan nan nan nan nan nan nan nan
nan nan nan nan nan nan nan nan nan nan nan nan nan nan nan nan nan nan nan nan nan 64 64 63 62 nan nan nan nan nan nan nan nan nan nan nan nan nan nan nan nan nan nan nan nan nan nan nan nan
nan nan nan nan nan nan nan nan nan nan nan nan nan nan nan nan nan nan nan nan 57 nan 62 nan 60 nan 54 nan nan nan nan nan nan nan nan nan nan nan nan nan nan nan nan nan nan nan nan nan nan
Wind_Direction
nan nan nan nan nan nan nan nan nan nan nan nan nan nan nan nan 224 256 nan nan nan nan 284 283 290 290 288 279 279 nan nan nan nan nan nan nan nan nan nan nan nan nan nan nan nan nan nan nan nan
nan nan nan nan nan nan nan nan nan nan nan nan nan nan nan nan nan nan nan nan nan nan nan nan 280 287 285 286 290 290 nan nan nan nan nan nan nan nan nan nan nan nan nan nan nan nan nan nan nan
nan nan nan nan nan nan nan nan nan 237 228 nan nan nan 201 235 nan nan nan nan nan nan nan nan 284 290 287 295 292 293 nan nan nan nan nan nan nan nan nan nan nan nan nan nan nan nan nan nan nan
nan nan nan nan nan nan nan nan nan nan 223 216 210 nan nan nan nan nan nan nan nan nan nan nan 288 292 293 302 302 298 nan nan nan nan nan nan nan nan nan nan nan nan nan nan nan nan nan nan nan
nan nan nan nan nan nan nan nan nan nan nan 242 231 220 nan nan nan nan nan nan nan nan nan 276 281 288 289 294 299 294 nan nan nan nan nan nan nan nan nan nan nan nan nan nan nan nan nan nan nan
nan nan nan nan nan nan nan nan nan nan nan nan 244 219 nan nan nan nan nan nan nan nan nan nan 273 276 284 288 292 292 nan nan nan nan nan nan nan nan nan nan nan nan nan nan nan nan nan nan nan
nan nan nan nan nan nan nan nan nan nan nan nan 244 231 nan nan nan nan nan nan nan nan nan nan nan 270 280 282 286 nan nan nan nan nan nan nan nan nan nan nan nan nan nan nan nan nan nan nan nan
nan nan nan nan nan nan nan nan nan nan nan 242 249 243 244 253 nan nan nan nan nan nan nan nan 259 263 269 273 nan nan nan nan nan nan nan nan nan nan nan nan nan nan nan nan nan nan nan nan nan
nan nan nan nan nan nan nan nan nan nan nan 244 246 243 nan 256 nan nan nan nan nan nan nan nan 261 265 267 nan nan nan nan nan nan nan nan nan nan nan nan nan nan nan nan nan nan nan nan nan nan
nan nan nan nan nan nan nan nan nan nan nan nan 249 249 nan 255 nan nan nan nan nan nan nan nan 258 nan nan nan nan nan nan nan nan nan nan nan nan nan nan nan nan nan nan nan nan nan nan nan nan
nan nan nan nan nan nan nan nan nan nan nan nan nan 256 258 nan 255 nan nan nan nan nan nan nan nan 265 nan nan nan nan nan nan nan nan nan nan nan nan nan nan nan nan nan nan nan nan nan nan nan
nan nan nan nan nan nan nan nan nan nan nan nan nan 240 265 266 268 nan nan nan nan nan nan nan nan nan nan nan nan 263 nan nan nan nan nan nan nan nan nan nan nan nan nan nan nan nan nan nan nan
nan nan nan nan nan nan nan nan nan nan nan nan nan nan nan 258 263 nan nan nan nan nan nan nan nan nan nan nan nan nan nan nan nan nan nan nan nan nan nan nan nan nan nan nan nan nan nan nan nan
nan nan nan nan nan nan nan nan nan nan nan nan nan nan nan 252 266 nan nan nan nan nan nan nan nan nan nan nan nan nan nan nan nan nan nan nan nan nan nan nan nan nan nan nan nan nan nan nan nan
nan nan nan nan nan nan nan nan nan nan nan nan nan nan nan nan 255 nan nan nan nan nan nan nan nan nan nan nan nan nan nan nan nan nan nan nan nan nan nan nan nan nan nan nan nan nan nan nan nan
nan nan nan nan nan nan nan nan nan nan nan nan nan nan nan nan nan 261 nan nan nan nan nan nan nan nan nan nan nan nan nan nan nan nan nan nan nan nan nan nan nan nan nan nan nan nan nan nan nan
nan nan nan nan nan nan nan nan nan nan nan nan nan nan nan nan nan nan nan nan nan nan nan nan nan nan nan nan nan nan nan nan nan nan nan nan nan nan nan nan nan nan nan nan nan nan nan nan nan
nan nan nan nan nan nan nan nan nan nan nan nan nan nan nan nan nan nan nan nan nan nan nan nan nan nan nan nan nan nan nan nan nan nan nan nan nan nan nan nan nan nan nan nan nan nan nan nan nan
nan nan nan nan nan nan nan nan nan nan nan nan nan nan nan nan nan nan nan nan nan nan nan nan nan nan nan nan nan nan nan nan nan nan nan nan nan nan nan nan nan nan nan nan nan nan nan nan nan
nan nan nan nan nan nan nan nan nan nan nan nan nan nan nan nan nan nan 268 nan nan nan nan nan nan nan nan nan nan nan nan nan nan nan nan nan nan nan nan nan nan nan nan nan nan nan nan nan nan
nan nan nan nan nan nan nan nan nan nan nan nan nan nan nan nan nan nan 267 nan nan nan nan nan nan nan nan nan nan nan nan nan nan nan nan nan nan nan nan nan nan nan nan nan nan nan nan nan nan
nan nan nan nan nan nan nan nan nan nan nan nan nan nan nan nan nan nan nan nan nan nan nan nan nan nan nan nan nan nan nan nan nan nan nan nan nan nan nan nan nan nan nan nan nan nan nan nan nan
nan nan nan nan nan nan nan nan nan nan nan nan nan nan nan nan nan nan nan nan nan nan nan nan nan nan nan nan nan nan nan nan nan nan nan nan nan nan nan nan nan nan nan nan nan nan nan nan nan
nan nan nan nan nan nan nan nan nan nan nan nan nan nan nan nan nan nan nan nan nan nan nan nan nan nan nan nan nan nan nan nan nan nan nan nan nan nan nan nan nan nan nan nan nan nan nan nan nan
nan nan nan nan nan nan nan nan nan nan nan nan nan nan nan nan nan nan nan 255 nan nan nan 255 nan nan nan nan nan nan nan nan nan nan nan nan nan nan nan nan nan nan nan nan nan nan nan nan nan
nan nan nan nan nan nan nan nan nan nan nan nan nan nan nan nan nan nan nan 251 253 nan nan nan 257 nan nan nan nan nan nan nan nan nan nan nan nan nan nan nan nan nan nan nan nan nan nan nan nan
nan nan nan nan nan nan nan nan nan nan nan nan nan nan nan nan nan nan nan 253 250 249 nan nan 254 nan nan nan nan nan nan nan nan nan nan nan nan nan nan nan nan nan nan nan nan nan nan nan nan
nan nan nan nan nan nan nan nan nan nan nan nan nan nan nan nan nan nan nan 249 246 242 239 243 nan nan nan nan nan nan nan nan nan nan nan nan nan nan nan nan nan nan nan nan nan nan nan nan nan
nan nan nan nan nan nan nan nan nan nan nan nan nan nan nan nan nan nan nan nan nan 238 239 242 247 nan nan nan nan nan nan nan nan nan nan nan nan nan nan nan nan nan nan nan nan nan nan nan nan
nan nan nan nan nan nan nan nan nan nan nan nan nan nan nan nan nan nan nan nan 234 nan 236 nan 245 nan 246 nan nan nan nan nan nan nan nan nan nan nan nan nan nan nan nan nan nan nan nan nan nan